Weather in Kabyrdak

Russia / Omsk Oblast     56°06′58″N   72°26′15″E
temp.,
°C
wind,
m/s
gust,
m/s
humid.,
%
clouds,
%
prec.,
mm/h
press.,
hPa
HPBL,
m
28 february, sun
sun2800:00−30sse479811 0.0 1030103
03:00−29se479873 0.0 1028120
06:00−26ese5109687 0.0 1026195
09:00−24ese51094100 0.0 1024257
12:00−20ese6995100 0.0 1022325
15:00−17ese61094100 0.1 1019405
18:00−18ese61194100 0.1 1017400
21:00−19e61295100 0.0 1015334
1 march, mon
mon100:00−18e61196100 0.3 1013333
03:00−18ene61196100 0.4 1011326
06:00−17ene61195100 0.6 1010331
09:00−17ene61096100 0.3 1009335
12:00−15ne5994100 0.8 1010380
15:00−14ne5793100 0.3 1011407
18:00−14nne3694100 0.4 1013371
21:00−16n239782 0.1 101528
2 march, tue
tue200:00−18n129986 0.1 101620
03:00−19nnw1110090 0.0 101620
06:00−19w009895 0.1 101720
09:00−17ssw1197100 0.1 101648
12:00−14sse1290100 0.3 1016299
15:00−12s2287100 0.1 1015458
18:00−13sse1295100 0.3 101574
21:00−16sse239682 0.1 101421
3 march, wed
wed300:00−16ssw229779 0.1 101420
03:00−18sw229874 0.0 101420
06:00−19sw229881 0.1 101520
09:00−20ssw339885 0.0 101646
12:00−15s359374 0.0 1016267
15:00−13s479285 0.0 1016402
18:00−14s599292 0.0 1015403
21:00−16s51093100 0.0 1015320
4 march, thu
thu400:00−15sse51094100 0.0 1014270
03:00−14sse51194100 0.1 1012278
06:00−14sse61095100 0.1 1011254
09:00−12sse61294100 0.1 1009354
12:00−8sse71292100 0.2 1008450
15:00−6sse81392100 0.1 1006650
18:00−5s71291100 0.9 1005625
21:00−6sse6129499 0.1 1004369